N61889 KCLT-KRDU

Flight info

Callsign N61889
Flight time 0h 36m
Altitude 21000
Route LILLS3 LILLS ETBUY DMSTR2
Aircraft C510/L-SDFGRWY/LB1

Departure

Time 2026-05-07 01:26
Airport Charlotte Douglas International Airport (KCLT)

Arrival

Time 2026-05-07 02:02
Airport Raleigh-Durham International Airport (KRDU)
Time Latitude Longitude Altitude Speed Heading
2026-05-07 01:06 35.21089 -80.93207 736 ft 0 kts 87°
2026-05-07 01:17 35.21090 -80.93187 736 ft 5 kts 86°
2026-05-07 01:17 35.21100 -80.93175 736 ft 0 kts 353°
2026-05-07 01:18 35.21122 -80.93183 736 ft 4 kts 321°
2026-05-07 01:18 35.21127 -80.93220 736 ft 6 kts 264°
2026-05-07 01:19 35.21122 -80.93278 736 ft 5 kts 266°
2026-05-07 01:19 35.21119 -80.93335 736 ft 10 kts 268°
2026-05-07 01:19 35.21141 -80.93369 737 ft 7 kts 351°
2026-05-07 01:19 35.21215 -80.93375 737 ft 14 kts 356°
2026-05-07 01:20 35.21318 -80.93386 738 ft 13 kts
2026-05-07 01:20 35.21422 -80.93393 739 ft 17 kts 357°
2026-05-07 01:20 35.21541 -80.93403 741 ft 16 kts 355°
2026-05-07 01:20 35.21663 -80.93414 742 ft 16 kts 359°
2026-05-07 01:21 35.21777 -80.93422 743 ft 16 kts 356°
2026-05-07 01:21 35.21875 -80.93430 745 ft 11 kts
2026-05-07 01:21 35.21941 -80.93417 746 ft 10 kts 14°
2026-05-07 01:21 35.22025 -80.93395 748 ft 15 kts 12°
2026-05-07 01:22 35.22131 -80.93387 748 ft 14 kts 355°
2026-05-07 01:22 35.22230 -80.93394 748 ft 14 kts 356°
2026-05-07 01:22 35.22333 -80.93403 749 ft 16 kts 356°
2026-05-07 01:22 35.22453 -80.93414 750 ft 12 kts 355°
2026-05-07 01:23 35.22516 -80.93449 751 ft 11 kts 290°
2026-05-07 01:23 35.22519 -80.93485 750 ft 0 kts 266°
2026-05-07 01:24 35.22519 -80.93486 750 ft 0 kts 266°
2026-05-07 01:24 35.22516 -80.93529 750 ft 10 kts 267°
2026-05-07 01:25 35.22484 -80.93612 750 ft 10 kts 195°
2026-05-07 01:25 35.22395 -80.93610 747 ft 28 kts 176°
2026-05-07 01:25 35.21943 -80.93572 744 ft 99 kts 176°
2026-05-07 01:25 35.21107 -80.93525 969 ft 132 kts 180°
2026-05-07 01:26 35.20168 -80.93459 1631 ft 142 kts 181°
2026-05-07 01:26 35.19098 -80.93329 2092 ft 168 kts 181°
2026-05-07 01:26 35.17847 -80.93108 2516 ft 190 kts 178°
2026-05-07 01:26 35.16564 -80.92872 3314 ft 185 kts 178°
2026-05-07 01:27 35.15385 -80.92086 3952 ft 210 kts 142°
2026-05-07 01:27 35.14541 -80.90594 4620 ft 215 kts 131°
2026-05-07 01:27 35.13713 -80.89100 5236 ft 217 kts 133°
2026-05-07 01:27 35.12849 -80.87557 5763 ft 222 kts 132°
2026-05-07 01:28 35.12016 -80.85948 6279 ft 231 kts 121°
2026-05-07 01:28 35.11627 -80.84004 6707 ft 240 kts 102°
2026-05-07 01:28 35.11386 -80.81977 7152 ft 241 kts 104°
2026-05-07 01:28 35.11036 -80.79974 7596 ft 242 kts 108°
2026-05-07 01:29 35.10649 -80.77959 8009 ft 244 kts 107°
2026-05-07 01:29 35.10280 -80.75920 8427 ft 247 kts 107°
2026-05-07 01:29 35.09907 -80.73856 8849 ft 249 kts 107°
2026-05-07 01:29 35.09530 -80.71789 9256 ft 251 kts 107°
2026-05-07 01:30 35.09149 -80.69694 9660 ft 253 kts 107°
2026-05-07 01:30 35.08765 -80.67594 10042 ft 255 kts 106°
2026-05-07 01:30 35.08390 -80.65510 10446 ft 253 kts 106°
2026-05-07 01:30 35.08021 -80.63401 10840 ft 254 kts 106°
2026-05-07 01:31 35.07654 -80.61272 11142 ft 259 kts 106°
2026-05-07 01:31 35.07270 -80.59113 11453 ft 261 kts 106°
2026-05-07 01:31 35.06876 -80.56949 11816 ft 261 kts 106°
2026-05-07 01:31 35.06486 -80.54776 12131 ft 264 kts 107°
2026-05-07 01:32 35.06030 -80.52601 12425 ft 265 kts 109°
2026-05-07 01:32 35.05730 -80.51154 12629 ft 266 kts 107°
2026-05-07 01:32 35.05332 -80.48940 12947 ft 268 kts 105°
2026-05-07 01:32 35.04927 -80.46678 12988 ft 279 kts 107°
2026-05-07 01:33 35.04489 -80.44332 12988 ft 288 kts 106°
2026-05-07 01:33 35.04042 -80.41917 12991 ft 294 kts 106°
2026-05-07 01:33 35.03590 -80.39470 12982 ft 298 kts 106°
2026-05-07 01:33 35.03131 -80.36995 12988 ft 300 kts 106°
2026-05-07 01:34 35.02671 -80.34504 12974 ft 302 kts 106°
2026-05-07 01:34 35.02205 -80.32007 12973 ft 302 kts 106°
2026-05-07 01:34 35.01741 -80.29501 12971 ft 303 kts 106°
2026-05-07 01:34 35.01273 -80.26996 12974 ft 302 kts 106°
2026-05-07 01:35 35.00808 -80.24501 12975 ft 302 kts 106°
2026-05-07 01:35 35.00342 -80.21999 12977 ft 302 kts 106°
2026-05-07 01:35 34.99876 -80.19510 12980 ft 301 kts 106°
2026-05-07 01:35 34.99409 -80.17020 12981 ft 301 kts 106°
2026-05-07 01:36 34.98919 -80.14541 12982 ft 299 kts 110°
2026-05-07 01:36 34.98301 -80.12119 12981 ft 299 kts 111°
2026-05-07 01:36 34.97688 -80.09683 12978 ft 300 kts 110°
2026-05-07 01:36 34.97090 -80.07241 12978 ft 301 kts 110°
2026-05-07 01:37 34.96484 -80.04794 12979 ft 301 kts 110°
2026-05-07 01:37 34.95900 -80.02342 12970 ft 302 kts 105°
2026-05-07 01:37 34.95923 -79.99786 12961 ft 305 kts 76°
2026-05-07 01:37 34.96836 -79.97494 12964 ft 300 kts 49°
2026-05-07 01:38 34.98302 -79.95722 12964 ft 295 kts 36°
2026-05-07 01:38 34.99819 -79.94026 12962 ft 297 kts 40°
2026-05-07 01:38 35.01194 -79.92180 12963 ft 299 kts 46°
2026-05-07 01:38 35.02540 -79.90250 12968 ft 299 kts 45°
2026-05-07 01:39 35.03936 -79.88366 12965 ft 299 kts 43°
2026-05-07 01:39 35.05343 -79.86496 12963 ft 299 kts 43°
2026-05-07 01:39 35.06734 -79.84607 12969 ft 300 kts 44°
2026-05-07 01:39 35.08129 -79.82710 12973 ft 300 kts 44°
2026-05-07 01:40 35.09523 -79.80823 12971 ft 300 kts 44°
2026-05-07 01:40 35.10919 -79.78928 12971 ft 300 kts 44°
2026-05-07 01:40 35.12316 -79.77034 12968 ft 300 kts 44°
2026-05-07 01:40 35.13709 -79.75142 12959 ft 299 kts 44°
2026-05-07 01:41 35.15102 -79.73248 12958 ft 300 kts 44°
2026-05-07 01:41 35.16495 -79.71357 12957 ft 300 kts 44°
2026-05-07 01:41 35.17890 -79.69457 12961 ft 300 kts 44°
2026-05-07 01:41 35.19286 -79.67560 12958 ft 300 kts 44°
2026-05-07 01:42 35.20680 -79.65660 12959 ft 300 kts 44°
2026-05-07 01:42 35.22075 -79.63759 12984 ft 300 kts 44°
2026-05-07 01:42 35.23470 -79.61859 12989 ft 300 kts 44°
2026-05-07 01:42 35.24860 -79.59963 12990 ft 300 kts 44°
2026-05-07 01:43 35.26254 -79.58060 12996 ft 300 kts 44°
2026-05-07 01:43 35.27648 -79.56157 12997 ft 300 kts 44°
2026-05-07 01:43 35.29041 -79.54254 13003 ft 300 kts 44°
2026-05-07 01:43 35.30431 -79.52356 13004 ft 300 kts 44°
2026-05-07 01:44 35.31820 -79.50453 13009 ft 300 kts 44°
2026-05-07 01:44 35.33212 -79.48550 13003 ft 300 kts 44°
2026-05-07 01:44 35.34604 -79.46642 13009 ft 300 kts 44°
2026-05-07 01:44 35.36074 -79.44918 13003 ft 294 kts 32°
2026-05-07 01:45 35.37682 -79.43371 13001 ft 295 kts 34°
2026-05-07 01:45 35.39253 -79.41756 13001 ft 295 kts 35°
2026-05-07 01:45 35.40829 -79.40153 12998 ft 295 kts 34°
2026-05-07 01:45 35.42426 -79.38557 12999 ft 295 kts 34°
2026-05-07 01:46 35.44014 -79.36960 12998 ft 296 kts 34°
2026-05-07 01:46 35.45623 -79.35337 12998 ft 296 kts 34°
2026-05-07 01:46 35.47211 -79.33733 12984 ft 296 kts 34°
2026-05-07 01:46 35.48778 -79.32152 12988 ft 296 kts 34°
2026-05-07 01:47 35.50370 -79.30547 12989 ft 296 kts 34°
2026-05-07 01:47 35.51959 -79.28940 12988 ft 296 kts 34°
2026-05-07 01:47 35.53547 -79.27337 12993 ft 296 kts 34°
2026-05-07 01:47 35.55138 -79.25726 12904 ft 299 kts 34°
2026-05-07 01:48 35.56773 -79.24080 12567 ft 309 kts 34°
2026-05-07 01:48 35.58458 -79.22373 12162 ft 318 kts 34°
2026-05-07 01:48 35.60184 -79.20623 11737 ft 324 kts 34°
2026-05-07 01:48 35.61936 -79.18845 11307 ft 329 kts 34°
2026-05-07 01:49 35.63608 -79.16905 10871 ft 335 kts 46°
2026-05-07 01:49 35.64982 -79.14568 10446 ft 338 kts 51°
2026-05-07 01:49 35.66374 -79.12250 10034 ft 334 kts 50°
2026-05-07 01:49 35.67736 -79.10021 9819 ft 321 kts 50°
2026-05-07 01:50 35.69046 -79.07823 9605 ft 317 kts 51°
2026-05-07 01:50 35.70343 -79.05635 9399 ft 315 kts 50°
2026-05-07 01:50 35.71637 -79.03472 9192 ft 313 kts 50°
2026-05-07 01:50 35.72923 -79.01318 8979 ft 312 kts 50°
2026-05-07 01:51 35.74206 -78.99169 8775 ft 311 kts 50°
2026-05-07 01:51 35.75484 -78.97021 8565 ft 310 kts 50°
2026-05-07 01:51 35.76742 -78.94909 8362 ft 310 kts 50°
2026-05-07 01:51 35.78008 -78.92767 8159 ft 309 kts 52°
2026-05-07 01:52 35.78954 -78.90391 7949 ft 311 kts 70°
2026-05-07 01:52 35.79418 -78.87790 7743 ft 311 kts 84°
2026-05-07 01:52 35.79650 -78.85144 7543 ft 310 kts 83°
2026-05-07 01:52 35.79924 -78.82507 7341 ft 310 kts 83°
2026-05-07 01:53 35.80188 -78.79868 7142 ft 310 kts 83°
2026-05-07 01:53 35.80435 -78.77235 6982 ft 308 kts 83°
2026-05-07 01:53 35.80708 -78.74636 6875 ft 304 kts 79°
2026-05-07 01:53 35.81409 -78.72169 6547 ft 307 kts 61°
2026-05-07 01:54 35.82582 -78.69985 6156 ft 303 kts 46°
2026-05-07 01:54 35.84045 -78.68188 5976 ft 289 kts 40°
2026-05-07 01:54 35.85428 -78.66476 5922 ft 278 kts 41°
2026-05-07 01:54 35.86813 -78.64764 5576 ft 288 kts 41°
2026-05-07 01:55 35.88260 -78.62989 5237 ft 297 kts 41°
2026-05-07 01:55 35.89747 -78.61188 4897 ft 302 kts 41°
2026-05-07 01:55 35.91252 -78.59387 4548 ft 301 kts 40°
2026-05-07 01:55 35.92760 -78.57596 4203 ft 299 kts 40°
2026-05-07 01:56 35.94443 -78.56217 3964 ft 284 kts 15°
2026-05-07 01:56 35.96312 -78.55952 3963 ft 260 kts 346°
2026-05-07 01:56 35.97876 -78.56727 3957 ft 230 kts 315°
2026-05-07 01:56 35.98761 -78.58198 3956 ft 205 kts 284°
2026-05-07 01:57 35.98808 -78.59873 3890 ft 194 kts 256°
2026-05-07 01:57 35.98415 -78.61485 3617 ft 199 kts 250°
2026-05-07 01:57 35.97998 -78.63136 3359 ft 204 kts 251°
2026-05-07 01:57 35.97574 -78.64824 3093 ft 207 kts 251°
2026-05-07 01:58 35.97080 -78.66485 2908 ft 204 kts 241°
2026-05-07 01:58 35.96118 -78.67753 2675 ft 200 kts 223°
2026-05-07 01:58 35.95201 -78.68890 2431 ft 176 kts 228°
2026-05-07 01:58 35.94390 -78.69912 2215 ft 156 kts 225°
2026-05-07 01:59 35.93669 -78.70778 2021 ft 128 kts 226°
2026-05-07 01:59 35.93105 -78.71492 1868 ft 110 kts 225°
2026-05-07 01:59 35.92568 -78.72148 1724 ft 108 kts 225°
2026-05-07 01:59 35.92037 -78.72822 1536 ft 110 kts 227°
2026-05-07 02:00 35.91515 -78.73507 1425 ft 106 kts 225°
2026-05-07 02:00 35.91019 -78.74121 1308 ft 99 kts 224°
2026-05-07 02:00 35.90531 -78.74716 1166 ft 100 kts 225°
2026-05-07 02:00 35.90040 -78.75332 1037 ft 102 kts 225°
2026-05-07 02:01 35.89536 -78.75962 906 ft 105 kts 223°
2026-05-07 02:01 35.89011 -78.76600 782 ft 108 kts 224°
2026-05-07 02:01 35.88495 -78.77241 637 ft 106 kts 223°
2026-05-07 02:01 35.87979 -78.77869 487 ft 103 kts 225°
2026-05-07 02:02 35.87506 -78.78457 430 ft 86 kts 224°
2026-05-07 02:02 35.87195 -78.78833 422 ft 31 kts 224°
2026-05-07 02:02 35.87164 -78.78928 421 ft 5 kts 326°
2026-05-07 02:02 35.87175 -78.78938 415 ft 0 kts 323°
2026-05-07 02:03 35.87181 -78.78944 412 ft 4 kts 320°
2026-05-07 02:03 35.87231 -78.78978 415 ft 8 kts 23°
2026-05-07 02:04 35.87284 -78.78911 422 ft 14 kts 44°
2026-05-07 02:04 35.87366 -78.78811 423 ft 19 kts 47°
2026-05-07 02:04 35.87470 -78.78682 427 ft 22 kts 44°
2026-05-07 02:04 35.87575 -78.78554 424 ft 20 kts 46°
2026-05-07 02:05 35.87660 -78.78449 430 ft 17 kts 44°
2026-05-07 02:05 35.87732 -78.78404 426 ft 6 kts 309°
2026-05-07 02:05 35.87786 -78.78471 429 ft 17 kts 313°
2026-05-07 02:05 35.87873 -78.78576 425 ft 19 kts 315°
2026-05-07 02:06 35.87966 -78.78690 412 ft 20 kts 314°
2026-05-07 02:06 35.88055 -78.78799 399 ft 20 kts 313°
2026-05-07 02:06 35.88140 -78.78905 389 ft 0 kts 315°
2026-05-07 02:08 35.88143 -78.78909 389 ft 4 kts 315°
2026-05-07 02:08 35.88190 -78.78956 388 ft 9 kts 356°
2026-05-07 02:09 35.88263 -78.78891 390 ft 18 kts 48°
2026-05-07 02:09 35.88375 -78.78750 391 ft 26 kts 44°
2026-05-07 02:09 35.88481 -78.78621 397 ft 20 kts 44°
2026-05-07 02:09 35.88565 -78.78516 399 ft 14 kts 46°
2026-05-07 02:10 35.88617 -78.78436 400 ft 6 kts 87°
2026-05-07 02:10 35.88583 -78.78402 400 ft 1 kts 155°
2026-05-07 02:10 35.88544 -78.78435 399 ft 22 kts 230°
2026-05-07 02:10 35.88434 -78.78563 397 ft 15 kts 220°
2026-05-07 02:11 35.88412 -78.78577 396 ft 1 kts 170°
2026-05-07 02:11 35.88410 -78.78575 396 ft 0 kts 145°
2026-05-07 02:11 35.88407 -78.78572 396 ft 0 kts 137°
2026-05-07 02:12 35.88414 -78.78579 396 ft 0 kts 137°